Location: Bohunice
(49.2117°N, 14.3803°E)
Time: 02:27:29
(UTC+00:00)

Daily predictions for brighter satellites

Satellite Brightness Start Highest point End
(mag) Time Altitude Azimuth Time Altitude Azimuth Time Altitude Azimuth
ADEOS II 4.1 00:00:02 10° NE 00:03:43 19° E 00:07:23 10° SE
NOSS 2-2 (D) 4.4 00:01:54 10° NW 00:06:53 57° SW 00:11:38 20° SSE
Cosmos 1461 4.3 00:03:34 10° WNW 00:06:31 23° WSW 00:06:31 23° WSW
Cosmos 1674 Rocket 4.2 00:06:55 31° SW 00:08:27 44° WNW 00:12:36 10° N
Cosmos 1867 3.9 00:05:01 22° WSW 00:08:29 62° NW 00:13:56 10° NE
Gblst 52 Del rocket 4.4 00:02:26 10° W 00:08:31 73° N 00:14:05 10° ENE
Cosmos 2298 Rocket 4.0 00:07:41 32° SSW 00:10:13 79° WNW 00:15:34 10° NNE
Cosmos 1674 4.3 00:10:51 20° W 00:11:59 23° WNW 00:15:04 10° NNW
Cosmos 1238 Rocket 4.2 00:10:18 10° NW 00:12:06 17° W 00:12:06 17° W
Thor Agena Rocket 3.7 00:07:34 10° NNE 00:12:51 70° ESE 00:15:34 29° S
USA 306 2.9 00:11:52 42° SSW 00:12:57 57° SE 00:17:03 10° ENE
Cosmos 2084 Rocket 4.4 00:12:47 26° SE 00:13:26 27° ESE 00:16:42 10° ENE
Cosmos 2369 Rocket 4.2 00:09:40 10° NNW 00:14:25 27° NE 00:19:08 10° ESE
ATLAS CENTAUR R/B 3.9 00:12:59 10° W 00:13:59 11° W 00:13:59 11° W
USA 307 3.0 00:15:20 41° SSW 00:16:24 53° SE 00:20:30 10° ENE
SL-16 R/B 3.4 00:16:08 19° SSE 00:19:19 32° ESE 00:24:18 10° NE
ERBS 2.3 00:22:52 47° SE 00:22:54 47° SE 00:25:52 10° ENE
ATLAS 5 CENTAUR R/B 3.3 00:12:48 10° NW 00:23:00 37° WSW 00:24:39 29° SSW
Cosmos 1980 3.7 00:20:38 29° SSW 00:23:40 86° WNW 00:29:21 10° NNE
Cosmos 1455 Rocket 3.1 00:19:19 10° N 00:23:48 84° ENE 00:26:09 28° SSE
CZ-4C R/B 3.7 00:17:22 10° NW 00:23:58 36° WSW 00:27:53 24° SSW
Cosmos 2333 Rocket 3.9 00:20:09 10° W 00:24:53 27° NW 00:29:40 10° NNE
USA 215 4.0 00:18:37 10° ENE 00:24:57 53° NNW 00:31:16 10° W
Cosmos 332 Rocket 3.7 00:28:23 31° SSW 00:30:40 81° ESE 00:35:29 10° NNE
NOSS 0 Rocket 4.2 00:29:22 23° SW 00:33:23 66° NW 00:39:38 10° NNE
USA 32 4.4 00:35:15 27° SW 00:37:56 54° W 00:43:06 10° N
Meteor 2-10 Rocket 3.8 00:32:37 10° NNW 00:38:12 58° W 00:41:17 25° SSW
Meteor 1-24 Rocket 3.9 00:34:53 22° S 00:38:32 64° E 00:43:56 10° NNE
Cosmos 1975 Rocket 3.0 00:39:39 30° SSW 00:41:49 80° W 00:46:18 10° N
UNK 4.0 00:40:50 13° SSE 00:44:50 66° ENE 00:49:26 10° N
USA 308 2.7 00:44:46 27° SW 00:46:58 80° SSE 00:51:10 10° ENE
MOS 1 Rocket 3.6 00:44:05 12° SSE 00:47:55 59° ENE 00:52:11 10° N
Cosmos 2219 Rocket 4.0 00:43:48 10° W 00:48:14 24° NW 00:52:42 10° N
Cosmos 1025 Rocket 2.9 00:47:03 28° SSW 00:49:17 83° W 00:53:36 10° N
Cosmos 1455 2.5 00:46:16 10° N 00:49:57 61° ENE 00:52:38 17° SSE
YAOGAN 11 4.4 00:46:10 13° SSE 00:50:04 69° ENE 00:54:35 10° N
Cosmos 1269 Rocket 4.0 00:45:38 10° NNW 00:50:54 70° WSW 00:55:07 16° S
Cosmos 1271 Rocket 4.0 00:49:45 10° N 00:53:20 38° ENE 00:56:57 10° SE
GP-B 3.9 00:51:57 10° NNW 00:56:02 37° W 00:58:07 23° SW
CZ-2D R/B 2.1 00:53:23 10° NNE 00:58:49 88° ESE 01:02:28 21° SSW
Meteor 2-5 Rocket 3.8 00:55:38 22° SSW 00:59:28 79° WNW 01:05:10 10° N
Cosmos 1300 4.2 00:57:40 10° NW 01:00:32 21° W 01:01:27 19° WSW
Lacrosse 5 2.2 00:58:31 24° SSW 01:01:25 53° SE 01:06:23 10° ENE
Cosmos 2154 Rocket 4.2 00:57:39 10° N 01:04:02 74° E 01:10:20 10° SSE
Cosmos 1544 Rocket 3.6 01:05:46 10° NNW 01:10:09 62° W 01:13:09 19° S
USA 305 3.0 01:07:08 16° WSW 01:10:28 71° NNW 01:14:39 10° ENE
BREEZE-M DEB (TANK) 4.0 01:00:18 10° WSW 01:13:39 86° S 01:17:27 10° E
Cosmos 2237 Rocket 3.0 01:11:28 15° WSW 01:15:50 42° NW 01:21:16 10° NNE
AQUA 3.8 01:13:22 10° NNE 01:18:10 88° E 01:21:49 17° SSW
SL-16 R/B 2.7 01:14:42 13° S 01:20:14 58° WSW 01:26:25 10° NNW
Helios 1A 3.0 01:17:03 10° SSE 01:21:15 88° ENE 01:25:31 10° NNW
SAR-Lupe-2 3.5 01:18:11 10° NNE 01:21:48 84° WNW 01:24:09 20° SSW
Lacrosse 5 rocket 1.7 01:21:54 21° SSW 01:24:11 47° SE 01:28:07 10° ENE
Resurs 1-4 Rocket 2.5 01:22:48 10° N 01:27:56 53° WNW 01:31:57 16° SW
Cosmos 2074 Rocket 4.2 01:22:08 10° NNW 01:28:17 57° W 01:33:58 12° SSW
Cosmos 1943 Rocket 2.6 01:28:10 10° NW 01:33:31 43° WSW 01:38:49 10° S
Cosmos 2297 3.9 01:27:57 10° NW 01:33:34 55° WSW 01:39:08 10° S
Cosmos 1703 3.4 01:35:52 12° S 01:39:25 76° E 01:43:22 10° NNE
Cosmos 2184 Rocket 4.4 01:37:10 10° NNW 01:43:06 46° W 01:48:45 11° SSW
Cosmos 2278 Rocket 4.2 01:42:52 10° W 01:43:43 10° W 01:44:36 10° WSW
ADEOS II 2.2 01:38:40 10° N 01:43:55 70° WNW 01:48:40 13° SSW
IDEFIX/ARIANE 42P 2.6 01:39:33 10° NNE 01:44:51 81° WNW 01:49:52 11° SSW
MOS 1-B Rocket 4.4 01:43:09 10° SSE 01:48:40 64° ENE 01:54:27 10° N
Cosmos 292 Rocket 3.8 01:48:10 13° SSW 01:52:31 86° WNW 01:57:21 10° NNE
USA 306 3.6 01:48:31 10° W 01:52:37 52° NNW 01:56:42 10° ENE
Cosmos 2084 Rocket 4.1 01:49:15 11° WSW 01:52:42 41° NW 01:56:20 10° NNE
NPP 4.4 01:50:49 10° N 01:55:49 40° WNW 02:00:35 11° SW
USA 307 3.5 01:51:58 10° W 01:56:05 53° NNW 02:00:12 10° ENE
Meteor 1-21 Rocket 4.3 01:52:23 10° S 01:58:00 79° E 02:03:36 10° NNE
ERBS 3.6 01:55:35 10° W 01:58:21 31° NNW 02:01:09 10° NE
Cosmos 2369 Rocket 2.2 01:53:22 10° NNW 01:58:56 67° WSW 02:04:26 10° SSE
Gblst 52 Del rocket 4.3 01:54:45 10° WNW 02:00:31 82° NNE 02:06:01 10° ESE
IRS-1D 3.7 01:56:28 10° NNE 02:01:51 88° E 02:07:09 10° SSW
Cosmos 962 Rocket 4.5 01:55:52 10° NNW 02:02:01 78° W 02:08:06 10° S
Cosmos 2228 3.2 01:57:50 10° NNW 02:02:07 55° W 02:06:21 10° S
EO 1 Del DPAF 3.6 01:58:47 10° N 02:02:09 44° WNW 02:05:16 11° SW
SL-16 R/B 2.7 01:58:00 11° SW 02:03:14 49° NW 02:08:46 10° NNE
Cosmos 2251 Rocket 3.6 01:59:14 10° NNW 02:04:25 59° WSW 02:09:36 10° S
Meteor 1-28 Rocket 4.3 02:03:36 11° SSW 02:06:36 26° W 02:09:46 10° NW
Cosmos 2181 Rocket 4.5 02:00:50 10° S 02:06:57 63° E 02:13:02 10° NNE
USA 215 4.4 02:01:11 10° ENE 02:07:20 46° N 02:13:31 10° WNW
Cosmos 1656 Rocket 3.6 02:02:55 10° NNW 02:08:20 69° WSW 02:13:42 10° SSE
Cosmos 2058 Rocket 3.8 02:05:39 10° N 02:10:00 56° ENE 02:14:17 10° SSE
COSMOS 2455 2.9 02:04:48 10° SW 02:10:46 79° NW 02:16:51 10° NE
Cosmos 1190 Rocket 4.5 02:06:41 10° NNW 02:11:58 69° ENE 02:17:15 10° SSE
Cosmos 1536 Rocket 4.5 02:08:03 10° SW 02:11:59 34° WNW 02:16:02 10° N
COSMOS 2441 4.5 02:12:19 10° N 02:17:10 66° WNW 02:21:57 10° SSW
Cosmos 1408 3.7 02:17:27 10° SSE 02:20:55 43° E 02:24:22 10° NNE
MSX 4.1 02:16:10 10° N 02:21:49 57° WNW 02:27:27 10° SW
Cosmos 1455 4.3 02:23:37 10° WNW 02:24:54 11° W 02:26:10 10° WSW
Cosmos 1603 3.9 02:21:00 10° SSW 02:26:36 74° ESE 02:32:17 10° NNE
USA 308 3.9 02:22:48 10° W 02:26:51 45° N 02:30:54 10° ENE
Cosmos 1271 Rocket 4.3 02:26:16 10° NW 02:29:00 19° W 02:31:44 10° SW
